Regional Weather Roundup
Issued by NWS Mobile, AL

Home | Current Version | Previous Version | Text Only | Print | Product List | Glossary On
Versions: 1 2 3 4 5 6 7 8 9 10 11 12 13 14 15 16 17 18 19 20 21 22 23 24 25 26 27
000
ASUS44 KMOB 172010
RWRMOB
REGIONAL WEATHER ROUNDUP
NATIONAL WEATHER SERVICE MOBILE AL
300 PM CDT THU APR 17 2014

NOTE: "FAIR" INDICATES FEW OR NO CLOUDS BELOW 12,000 FEET WITH NO
      SIGNIFICANT WEATHER AND/OR OBSTRUCTIONS TO VISIBILITY.

  * THESE STATIONS ARE PART OF THE UNIVERSITY OF SOUTH ALABAMA
    MESONET AND ARE NOT UNDER NWS OR FAA QUALITY CONTROL.

ALZ061>064-172100-
COASTAL ALABAMA

CITY           SKY/WX    TMP DP  RH WIND       PRES   REMARKS
MOBILE REG APT CLOUDY    70  57  63 E9        30.17F
BROOKLEY FIELD CLOUDY    70  57  63 NE5       30.17F
USA CAMPUS*      N/A     70  57  64 E5        30.16F
DOG RIVER*     NOT AVBL


CITY           SKY/WX    TMP DP  RH WIND       PRES   REMARKS
MOUNT VERNON*    N/A     70  55  60 N6        30.19F
SARALAND*      NOT AVBL
BAY MINETTE*   NOT AVBL
LOXLEY*        NOT AVBL
ROBERTSDALE*   NOT AVBL
FAIRHOPE*      NOT AVBL
ELBERTA*       NOT AVBL
FOLEY*         NOT AVBL
GRAND BAY*       N/A     70  57  64 E8        30.15F
DAUPHIN ISLND* NOT AVBL
BON SCOUR NWR* NOT AVBL
GULF SHORES    NOT AVBL

$$

ALZ051>060-172100-
INTERIOR SOUTHWEST AND SOUTH CENTRAL ALABAMA

CITY           SKY/WX    TMP DP  RH WIND       PRES   REMARKS
GREENVILLE     CLOUDY    70  51  51 SE7       30.21F
EVERGREEN      CLOUDY    72  53  51 E7        30.21F
CASTLEBERRY*   NOT AVBL
ATMORE*          N/A     68  57  68 NE13      30.20F
DIXIE*         NOT AVBL
ANDALUSIA/OPP  CLOUDY    75  53  46 SE13      30.19F
ANDALUSIA*     NOT AVBL
FLORALA APT    CLOUDY    71  55  56 E10G18    30.20F
FLORALA*         N/A     70  54  56 E9        30.17F

$$

FLZ001>006-172100-
WESTERN FLORIDA PANHANDLE

CITY           SKY/WX    TMP DP  RH WIND       PRES   REMARKS
PENSACOLA      CLOUDY    73  52  47 E7        30.16F
NAS PENSACOLA  CLOUDY    70  55  59 E10       30.15F
MILTON         CLOUDY    72  53  51 E8        30.17F
WHTNG S FIELD  CLOUDY    74  54  49 NE9       30.16F


CITY           SKY/WX    TMP DP  RH WIND       PRES   REMARKS
WALNUT HILL*   NOT AVBL
JAY*           NOT AVBL
DUKE FIELD     PTSUNNY   72  53  52 NE7       30.18F
CRESTVIEW      CLOUDY    74  54  49 VRB5      30.19F
VALPARAISO     CLOUDY    71  58  62 E7        30.17F
DESTIN         CLOUDY    74  56  53 E10       30.16F

$$

MSZ076-079-172100-
INTERIOR SOUTHEAST MISSISSIPPI

CITY           SKY/WX    TMP DP  RH WIND       PRES   REMARKS
LEAKESVILLE*     N/A     66  52  59 E5        30.19F
AGRICOLA*      NOT AVBL

$$

MARINE OBSERVATIONS

STATION/POSITION TIME  TEMP    WIND        PRES    WAVE
                       AIR SEA DIR/SP/G            HT/PER
                 (UTC) (F)     (DEG/KT/KT) (MB)    (FT/S)
PASCAGOULA       2000   66     100/  7/ 11 1021.0F
PETIT BOIS ISLND 2000   64      90/ 12/ 16 1021.6F
GRAND BAY        1900   65     120/ 11     1023.0S
KATRINA CUT      1900   63     110/ 18     1023.0S
CEDAR POINT      1900   64     110/ 12     1022.4R
E DAUPHIN ISLAND 1900   64      90/ 15/ 17 1021.9F
MIDDLE BAY LIGHT 1900   66     110/  7     1021.0F
USCG MOBILE BAY  2000   69 63  120/  3/  4 1020.4F
STATE DOCKS      2000   71 62              1021.2F
MEAHER PARK      1900   71     100/  5     1021.7F
WEEKS BAY        1900   71                   N/A
FORT MORGAN      2000   65     110/ 14/ 19 1021.0F
12 S ORANGE BCH  2000   63 66   80/ 16/ 17 1021.2F   6/ 8
PENSACOLA BAY    2000   72 66   90/  2/  4 1021.5F
64 S DAUPHIN ISL 1930   66 71   70/ 23/ 27 1020.0F
67 S FORT MORGAN 1800   67                 1020.0F

$$

SELECTED LOCATIONS ACROSS THE REGION

CITY           SKY/WX    TMP DP  RH WIND       PRES   REMARKS
NEW ORLEANS    CLOUDY    64  59  83 E15G23    30.14F
GULFPORT       CLOUDY    68  57  68 E5        30.16F
PASCAGOULA AP  CLOUDY    69  58  67 SE8       30.16F
PASCAGOULA*      N/A     66  57  72 E5        30.17F
HATTIESBURG    CLOUDY    67  54  63 NE10      30.20F
LAUREL         CLOUDY    64  50  59 NE9       30.21F
MERIDIAN       CLOUDY    67  48  50 E8        30.21F
JACKSON        CLOUDY    68  50  52 E7        30.19F
MONTGOMERY     PTSUNNY   71  51  49 E16       30.24F
TROY           MOSUNNY   69  52  54 NE10      30.24F
KINSTON*       NOT AVBL
GENEVA*          N/A     68  55  64 E6        30.23F
ASHFORD*       NOT AVBL
DOTHAN         MOSUNNY   68  53  58 E15G23    30.27S
PANAMA CITY    CLOUDY    74  56  53 NE9       30.16F

$$




USA.gov is the U.S. government's official web portal to all federal, state and local government web resources and services.